Dewpoint
2 2 3 3 2 2 2 2 2 3 3 3 5 6 7 7 7 9 9 8 7 5 2 -0 2 -2 5 5 5 5 6 7 6 6 4 0 -1 -1 -2 -1 2 2 1 0 -0
2 2 1 3 3 3 3 3 2 1 1 2 0 4 6 6 7 7 4 6 6 7 7 0 2 -0 2 5 4 4 6 6 4 2 -1 -3 -0 -2 -1 1 2 2 2 2 0
2 1 1 2 2 2 1 3 3 3 3 3 2 -1 4 5 6 5 2 6 4 4 5 4 0 1 4 4 3 3 6 4 3 -0 -1 -2 -2 -2 -1 1 1 2 1 2 2
1 1 2 1 2 2 2 3 3 3 3 3 1 1 1 4 7 6 8 5 4 1 7 6 4 3 4 5 3 4 3 2 3 2 1 -0 -3 -3 -1 -1 -1 -1 -1 1 2
0 1 1 1 1 1 1 2 3 3 2 1 0 1 1 4 5 5 6 2 7 8 7 8 3 2 3 2 2 2 2 2 3 2 0 -0 -1 -2 -3 -2 -2 -0 1 1 1
1 1 0 0 -0 1 1 0 -0 0 -0 -2 -3 1 3 3 -6 -4 6 5 8 8 8 6 3 0 1 1 3 2 1 1 1 0 -1 -1 -1 -3 -3 -3 -3 -0 1 2 1
1 1 0 -0 0 -0 -1 -1 -15 -11 -6 -4 1 2 3 1 -5 -1 -2 4 6 7 7 6 3 1 -0 1 1 1 1 0 -1 -0 -1 -2 -1 -2 -2 -4 -3 -3 0 3 2
1 1 1 -0 -0 -1 -1 -8 -18 -14 -7 -6 1 1 3 -1 -2 -7 5 4 6 6 7 6 6 2 1 1 -1 -1 0 3 -0 -2 -2 -2 1 -1 -2 -3 -4 -4 -2 2 2
-0 0 -0 -1 -2 -3 -2 -11 -16 -8 -7 -8 0 1 2 1 1 -5 -5 7 8 6 6 7 6 5 1 2 4 2 1 0 -0 -3 -3 -2 -0 -3 -3 -3 -3 -3 -3 -3 -0
-0 -1 -1 -1 -3 -4 -6 -11 -13 -5 1 1 2 2 -1 -1 0 3 -0 -4 6 7 8 7 5 4 3 2 6 5 0 -2 -1 -3 -3 -2 -1 -3 -5 -3 -4 -4 -4 -4 -4
-0 -0 -2 -3 -4 -4 -5 -6 -2 -2 -2 -1 -0 1 -1 0 2 -1 5 4 4 7 8 4 7 7 6 5 1 1 -0 1 -2 -4 -3 -2 -2 -3 -4 -5 -6 -5 -4 -4 -5
0 -1 -2 -3 -4 -5 -5 -6 -0 -2 -0 -2 -3 -4 -4 -3 -2 -4 1 6 6 8 7 7 8 5 4 4 3 2 2 1 -2 -4 -4 -3 -3 -4 -5 -5 -5 -6 -7 -7 -8
-1 -1 -3 -3 -4 -6 -3 -2 -6 -5 -1 -3 -4 -2 -2 -3 -2 -3 -2 5 6 6 7 8 7 4 4 5 5 3 3 2 1 -2 -4 -3 -1 -3 -4 -5 -5 -6 -6 -6 -7
-2 -1 -2 -2 -4 -3 -5 -7 -9 -6 -1 -3 -1 -2 -2 -2 -2 -5 -7 2 6 6 6 7 5 4 4 6 4 5 1 1 1 1 4 -3 2 -2 -3 -3 -4 -5 -6 -6 -7
-2 -2 -2 -1 -3 -1 -5 -9 -12 -5 -3 -10 -3 -0 1 -2 -3 -2 -8 -2 7 6 6 6 6 6 5 6 4 5 1 2 2 1 1 1 2 -0 -3 -3 -4 -5 -5 -6 -6
-2 -2 -2 -2 -3 -4 -6 -8 -8 -4 -4 -6 -5 -3 -7 -4 1 -0 0 0 6 6 6 4 2 4 3 4 3 0 0 1 1 2 7 5 2 1 -2 -2 -4 -5 -5 -6 -6
-3 -2 -2 -1 -3 -4 -2 -7 -9 -3 -8 -7 -7 -8 -6 -7 -6 2 2 5 7 8 8 6 5 2 2 4 4 1 1 7 7 6 7 1 2 1 -3 -4 -4 -5 -5 -5 -6
-3 -3 -3 -4 -5 -2 -2 -5 -8 -11 -8 -9 -6 -7 -6 0 -0 -0 3 3 4 6 7 8 8 5 1 4 6 4 3 8 9 7 4 -0 2 0 -3 -5 -5 -5 -5 -5 -5
-3 -2 -3 -5 -6 -4 -3 -7 -8 -9 -11 -9 -6 -6 -2 0 -1 -0 -0 -1 3 6 7 7 7 3 2 0 3 5 5 2 2 1 3 2 0 -2 -4 -4 -4 -4 -5 -5 -5
-2 -2 -3 -6 -3 -2 -3 -5 -6 -8 -9 -9 -6 -3 -3 -3 -3 0 -1 -4 -3 3 4 6 5 3 3 1 1 2 1 4 4 8 6 3 2 1 -2 -3 -4 -4 -4 -5 -5
-1 -2 -5 -3 -3 -2 -5 -6 -6 -8 -9 -8 -6 -4 -6 -3 -2 -2 -0 -2 2 1 1 3 6 4 3 4 4 2 3 2 5 5 5 5 3 -2 -3 -3 -4 -4 -5 -5 -6
-1 -2 -4 -1 -1 -2 -3 -5 -6 -7 -7 -5 -0 -0 -2 -2 -2 -1 0 -1 1 2 1 1 4 8 5 2 1 2 3 3 7 7 3 2 2 -3 -4 -4 -4 -5 -5 -5 -7
-2 -4 -2 -2 -3 -8 -5 -3 -3 -3 -3 -4 -2 -3 -4 -2 0 0 -1 1 -0 1 1 2 3 5 8 6 5 6 3 2 2 3 5 4 2 -4 -4 -4 -4 -5 -6 -6 -6
-2 -3 -3 -2 -3 -4 -4 -4 -2 -3 -1 -2 -1 -2 -2 -1 -2 1 -0 -0 -1 -0 1 -0 1 2 4 4 5 7 7 6 5 7 4 2 1 -2 -4 -4 -5 -5 -5 -7 -7
-2 -4 -5 -3 -2 -3 -3 -5 -3 -3 -4 -5 -1 -2 -0 -0 -3 -2 -6 -4 -3 -0 2 1 2 1 1 0 1 5 5 6 7 7 6 3 1 -1 -3 -4 -5 -6 -6 -6 -7
-3 -3 -4 -4 -4 -3 -3 -3 -4 -6 -5 -4 -4 -4 -4 -3 -4 -2 -3 -3 -1 0 2 1 1 1 0 -2 2 5 4 4 3 5 5 3 2 -2 -4 -5 -6 -6 -6 -6 -7
-2 -4 -5 -4 -4 -3 -4 -5 -6 -5 -5 -6 -5 -5 -5 -6 -7 -6 -6 -6 -5 -2 -2 0 2 1 0 -1 0 7 5 3 3 1 2 3 0 -3 -3 -4 -5 -6 -6 -6 -6
Wind_Speed
20 19 19 19 20 20 22 22 21 21 23 24 26 26 25 28 31 33 35 34 26 18 15 13 11 12 13 8 9 7 2 4 4 5 5 3 5 6 9 12 8 12 4 7 25
22 22 21 21 19 19 21 23 21 21 23 22 23 26 27 27 30 38 40 33 29 28 27 18 16 13 10 9 8 5 5 9 6 4 1 4 2 8 6 9 5 13 10 10 28
20 21 23 21 22 22 22 23 23 22 23 23 20 21 25 26 29 43 34 23 23 24 27 27 19 13 11 10 9 6 8 5 6 9 2 5 2 7 7 4 12 25 20 18 31
22 22 21 25 22 22 23 22 24 23 23 22 18 21 19 19 10 5 15 17 3 14 23 25 25 11 7 8 11 3 9 8 13 10 3 3 7 3 13 7 18 20 25 25 32
21 22 22 24 22 24 23 24 24 24 24 21 16 17 19 15 39 11 18 12 7 8 7 20 20 18 7 7 9 6 4 15 28 18 12 8 8 8 8 10 11 19 24 28 32
21 20 22 22 24 23 25 26 27 26 24 22 18 15 18 23 35 42 30 28 28 22 15 16 10 17 9 7 9 7 12 19 14 18 8 3 6 9 8 12 10 16 24 29 30
21 21 22 25 25 25 26 28 28 26 25 25 21 16 24 46 19 17 46 51 36 22 23 18 21 10 9 2 20 17 6 7 6 15 8 4 9 9 21 12 16 15 19 27 30
21 22 22 24 24 27 28 31 28 25 23 27 22 18 27 32 33 37 27 40 32 24 15 19 16 21 17 7 1 5 5 11 5 8 7 11 15 8 19 17 16 19 21 25 31
22 23 24 25 26 27 28 31 29 21 22 24 18 17 21 20 19 25 38 37 24 21 19 11 9 13 6 12 3 4 5 5 5 9 5 9 3 8 22 20 26 25 25 25 29
21 23 23 26 26 27 29 31 26 14 9 8 9 7 23 18 10 23 22 44 32 22 13 13 11 5 5 9 16 8 5 4 6 7 8 7 10 7 5 20 25 31 31 31 33
20 20 23 25 24 25 30 23 19 5 17 15 21 23 33 15 25 25 15 23 30 19 12 10 7 16 24 20 13 3 4 10 4 5 5 10 11 15 17 13 17 26 32 36 35
18 20 22 22 23 22 20 20 6 18 18 23 33 43 52 43 36 47 22 20 21 22 20 9 17 24 13 13 14 16 12 9 4 3 6 5 10 11 9 8 23 30 33 34 30
19 21 19 21 22 22 11 8 19 19 9 25 26 28 17 21 37 37 28 19 16 27 24 23 17 16 17 15 15 19 21 16 5 1 2 4 6 9 6 11 23 29 36 40 37
19 19 17 19 16 8 16 18 14 17 6 7 4 6 5 11 11 42 42 17 16 23 22 19 22 15 22 22 16 19 22 16 10 2 7 3 5 7 6 10 7 19 31 37 39
19 16 17 15 16 15 18 15 15 6 6 5 4 2 15 9 17 10 37 31 14 15 17 20 20 29 18 27 24 14 11 15 8 8 2 7 4 5 4 9 9 10 29 34 34
18 16 17 15 19 17 12 14 5 4 9 7 3 5 15 4 14 17 13 24 12 19 16 29 4 17 21 10 15 7 5 4 3 4 5 22 10 6 11 7 7 13 24 31 33
15 17 16 16 17 14 9 6 4 4 6 5 5 13 19 14 12 8 16 16 17 16 18 17 22 10 14 21 13 12 11 3 3 4 13 10 9 18 7 7 12 17 19 30 31
15 18 18 18 15 14 6 4 3 6 7 12 10 19 9 14 7 18 10 15 22 21 6 15 13 22 15 16 13 24 22 7 7 6 10 7 8 6 13 20 24 27 30 29 28
15 16 19 13 13 12 13 2 7 6 5 5 11 12 4 3 6 10 10 8 7 15 12 8 12 8 10 8 25 19 21 19 5 2 0 5 8 7 7 8 8 14 19 26 28
14 11 16 7 7 19 3 7 5 6 5 6 7 6 3 7 13 5 4 7 13 10 16 5 10 6 17 15 22 14 23 12 3 8 6 3 5 8 10 17 14 10 12 26 22
11 4 7 10 13 14 4 7 6 14 15 5 6 6 9 10 8 4 6 10 3 11 9 4 6 7 12 20 21 10 14 9 9 4 6 3 6 8 11 13 15 16 20 22 23
12 2 10 20 5 2 3 5 7 6 11 9 6 8 9 8 5 6 8 9 7 5 11 2 6 7 19 19 13 22 16 23 9 8 6 2 6 5 13 14 8 8 16 21 21
12 7 19 22 4 3 3 7 6 6 5 5 5 7 3 4 5 6 7 4 9 3 4 9 4 4 7 5 13 13 17 22 14 11 16 6 6 2 4 6 9 8 13 17 21
10 3 6 11 9 4 4 5 5 2 5 8 5 4 4 4 5 4 8 5 13 10 11 4 4 7 6 6 9 17 20 20 16 11 15 15 16 8 5 6 5 8 14 13 21
13 6 8 5 7 10 6 3 4 4 7 5 4 5 5 2 3 2 7 9 11 10 9 7 5 5 11 14 19 17 25 29 26 21 15 22 23 15 9 10 10 18 9 14 21
11 6 6 4 7 9 10 5 6 8 6 6 11 9 3 2 4 9 10 5 6 3 1 4 3 9 10 10 11 17 22 26 28 28 22 25 25 12 13 13 4 11 14 17 26
16 12 9 8 6 6 5 6 9 5 7 16 9 2 7 7 9 12 19 24 16 10 5 2 3 3 6 10 18 14 20 22 27 20 28 25 36 8 11 13 10 20 21 27 32
Wind_Direction
340 330 328 328 326 319 320 317 316 315 312 299 277 277 293 274 268 272 268 268 277 275 285 253 236 209 208 220 210 178 123 206 234 191 253 328 206 147 180 155 167 189 182 186 179
338 334 329 328 319 322 319 322 320 313 308 308 302 274 279 291 273 268 258 266 283 268 261 248 229 212 207 214 203 170 176 209 212 219 237 299 236 168 154 150 190 190 199 188 181
330 334 331 323 323 317 315 320 324 322 316 311 307 295 276 291 298 264 267 278 263 251 240 232 244 224 215 218 205 199 225 213 249 217 289 329 285 179 150 226 191 192 195 185 183
325 327 326 325 317 318 318 316 322 321 318 315 309 304 288 285 258 294 198 197 249 235 212 219 232 206 188 201 212 210 214 192 243 222 282 315 316 251 192 204 212 211 197 188 190
323 321 321 322 320 318 313 317 315 315 314 315 306 302 311 268 244 206 194 187 305 327 255 214 208 207 183 193 203 213 224 224 239 247 271 273 252 251 247 227 209 201 201 198 197
316 316 320 316 318 317 318 315 307 304 307 309 302 289 283 261 260 230 230 241 266 275 276 227 212 222 233 203 186 217 211 238 239 252 242 235 269 174 251 222 196 189 201 205 205
311 316 313 317 321 321 317 313 311 297 292 302 299 283 263 247 269 250 236 245 260 269 256 249 234 212 227 268 232 237 239 270 227 240 231 184 275 198 241 225 215 208 208 208 214
307 309 311 317 314 321 320 321 316 307 286 294 288 272 260 270 270 255 229 237 240 237 233 237 233 244 237 250 183 175 169 239 211 176 242 176 257 257 237 215 215 218 215 216 219
301 301 308 310 313 321 320 320 319 311 293 282 268 234 264 277 268 274 229 233 230 224 234 239 244 221 193 221 329 230 211 209 274 196 172 190 252 243 245 230 234 234 233 230 227
302 304 308 312 313 322 324 325 321 303 333 321 243 230 255 257 284 296 273 234 239 245 257 227 203 180 188 184 214 193 181 193 208 215 199 201 245 252 232 227 230 239 243 244 240
299 305 305 310 312 323 328 354 3 332 320 284 267 259 268 272 282 308 296 241 225 221 216 193 193 206 212 213 215 129 189 206 214 219 170 221 231 241 240 238 250 242 246 249 249
296 297 306 308 312 320 328 347 358 325 298 278 263 265 261 266 279 276 277 212 199 222 208 217 217 214 221 213 209 211 222 230 290 227 181 219 240 244 228 224 236 244 242 242 246
290 294 306 306 312 316 319 343 330 326 283 298 258 254 263 240 237 252 253 238 208 216 214 218 224 212 217 215 203 215 216 214 205 125 274 346 274 266 238 230 247 245 246 246 244
281 290 299 303 311 297 323 322 334 331 293 275 255 283 250 233 252 237 234 232 210 221 215 222 223 209 207 217 200 218 213 217 213 102 256 162 276 254 239 231 227 237 236 240 242
276 280 287 293 298 298 317 330 329 336 321 270 264 45 342 211 313 222 224 212 243 202 191 215 206 208 209 206 204 233 189 204 186 197 80 239 286 256 239 223 245 239 241 242 242
270 272 280 278 288 302 317 327 333 51 248 303 328 305 345 316 320 298 206 207 258 228 201 226 190 199 208 214 201 141 91 111 112 148 226 246 216 211 235 186 245 248 245 247 248
269 264 269 274 279 302 297 339 39 191 307 274 340 335 326 322 320 333 278 212 219 190 215 219 218 203 182 206 190 181 152 153 193 188 235 212 224 246 246 223 220 239 239 246 250
264 256 268 272 285 271 243 61 145 239 260 316 337 327 311 20 14 342 314 246 242 239 198 203 206 207 187 198 188 195 190 174 174 182 239 161 223 240 217 233 236 243 250 254 255
252 257 268 277 266 205 160 143 211 216 240 313 327 299 289 69 35 349 343 289 257 235 216 189 223 194 194 187 174 201 211 197 116 322 334 179 271 289 242 266 258 253 244 251 254
242 255 272 233 186 172 170 227 235 213 301 301 276 271 265 353 334 8 317 294 341 313 303 302 237 188 192 193 196 173 197 186 177 178 241 236 246 212 201 220 235 237 229 245 243
215 206 197 167 161 171 201 225 246 252 253 237 250 270 289 306 245 282 259 298 58 323 335 345 258 186 162 199 187 181 188 200 160 194 207 183 248 207 196 213 228 234 233 235 219
186 177 187 169 185 228 207 203 229 248 239 242 268 257 253 253 242 252 231 212 65 16 331 9 293 216 205 192 211 195 196 186 194 182 222 156 259 207 206 214 210 232 234 225 216
172 160 178 177 210 225 263 256 256 266 229 239 250 230 220 260 290 250 271 157 154 325 356 356 10 320 152 216 207 231 212 201 209 209 218 207 243 323 220 221 227 217 236 221 215
156 171 208 212 217 206 225 249 251 277 269 247 262 271 264 252 235 290 311 338 289 244 180 138 231 246 290 316 294 203 204 225 212 227 219 213 232 228 258 217 239 231 234 219 203
176 210 182 179 213 216 216 205 276 278 221 290 295 266 298 214 318 349 321 329 312 334 178 189 240 238 255 274 284 236 204 203 208 213 216 229 230 211 213 217 228 244 214 215 205
171 159 172 186 158 195 221 192 241 257 242 259 253 269 307 217 282 292 303 306 270 326 352 308 287 315 298 313 253 254 223 210 213 209 220 239 248 207 203 223 197 228 220 215 214
196 173 167 205 180 182 199 211 223 217 247 253 269 299 283 276 267 274 279 273 249 261 275 250 285 5 280 341 329 261 225 207 213 215 208 225 235 139 198 205 213 230 223 220 216
Height
1516 1514 1511 1508 1505 1502 1499 1496 1494 1492 1490 1487 1486 1484 1483 1480 1479 1478 1473 1474 1477 1479 1479 1480 1479 1479 1482 1482 1482 1482 1491 1495 1485 1484 1473 1467 1466 1467 1470 1471 1474 1476 1477 1479 1483
1515 1512 1509 1506 1503 1500 1497 1494 1491 1489 1487 1484 1482 1480 1480 1476 1473 1466 1466 1469 1471 1472 1474 1476 1476 1476 1478 1478 1478 1477 1486 1483 1474 1472 1470 1467 1466 1466 1469 1471 1473 1475 1476 1477 1480
1513 1509 1506 1503 1500 1498 1495 1491 1488 1486 1484 1482 1479 1476 1477 1475 1470 1451 1462 1465 1462 1462 1464 1471 1474 1473 1474 1474 1473 1473 1473 1472 1468 1469 1469 1466 1465 1466 1467 1472 1467 1468 1472 1475 1478
1511 1508 1505 1502 1497 1494 1491 1489 1485 1484 1481 1478 1475 1475 1473 1475 1469 1451 1453 1457 1456 1455 1458 1463 1468 1469 1468 1469 1468 1471 1466 1466 1464 1466 1467 1467 1466 1465 1463 1463 1463 1466 1468 1471 1474
1508 1505 1502 1498 1496 1491 1487 1484 1482 1479 1476 1474 1472 1472 1470 1467 1447 1452 1451 1452 1451 1455 1459 1460 1462 1464 1463 1462 1465 1465 1463 1463 1462 1463 1463 1464 1464 1465 1461 1461 1462 1463 1467 1468 1470
1504 1501 1498 1495 1492 1488 1485 1481 1477 1474 1472 1468 1467 1468 1468 1457 1438 1446 1448 1445 1448 1452 1455 1457 1456 1460 1458 1457 1459 1456 1458 1458 1459 1458 1461 1462 1460 1461 1457 1459 1460 1460 1463 1465 1467
1501 1498 1495 1492 1488 1485 1480 1475 1471 1469 1467 1464 1463 1463 1458 1426 1432 1437 1438 1439 1444 1447 1448 1452 1454 1454 1454 1453 1452 1453 1457 1455 1454 1454 1456 1457 1457 1457 1455 1457 1458 1459 1461 1463 1465
1498 1495 1491 1488 1484 1480 1475 1470 1465 1461 1459 1458 1457 1457 1440 1424 1427 1431 1433 1433 1438 1441 1443 1445 1449 1450 1451 1451 1449 1453 1455 1458 1448 1450 1450 1453 1452 1445 1450 1453 1454 1456 1457 1460 1462
1493 1490 1487 1483 1481 1476 1470 1465 1460 1456 1452 1451 1450 1451 1433 1423 1422 1421 1426 1425 1433 1437 1438 1441 1444 1444 1446 1449 1456 1452 1458 1457 1451 1446 1447 1449 1448 1442 1443 1446 1448 1450 1452 1454 1456
1489 1487 1483 1481 1478 1473 1468 1460 1453 1449 1449 1445 1445 1450 1428 1420 1420 1417 1418 1422 1427 1433 1435 1435 1437 1440 1442 1442 1441 1447 1453 1449 1449 1443 1446 1448 1447 1440 1439 1441 1441 1443 1445 1446 1448
1484 1482 1480 1477 1474 1470 1464 1459 1455 1450 1446 1447 1441 1431 1417 1421 1417 1415 1419 1417 1424 1427 1426 1425 1429 1429 1422 1426 1429 1435 1441 1442 1439 1437 1442 1442 1442 1435 1437 1437 1436 1437 1438 1439 1440
1479 1477 1475 1473 1471 1468 1466 1463 1462 1463 1439 1434 1428 1422 1412 1425 1417 1408 1416 1416 1415 1413 1417 1420 1414 1415 1422 1426 1429 1430 1435 1441 1438 1434 1440 1438 1439 1431 1431 1431 1430 1429 1430 1431 1433
1475 1474 1472 1470 1468 1467 1465 1464 1462 1457 1448 1417 1413 1409 1407 1409 1400 1401 1412 1405 1404 1403 1406 1406 1404 1417 1417 1420 1425 1424 1425 1431 1436 1435 1437 1438 1439 1430 1423 1422 1421 1421 1421 1423 1426
1469 1469 1467 1465 1467 1463 1464 1462 1460 1455 1450 1420 1410 1404 1402 1403 1395 1386 1394 1403 1396 1394 1402 1401 1400 1406 1408 1412 1417 1423 1412 1423 1431 1439 1447 1438 1449 1428 1420 1418 1414 1412 1414 1413 1415
1462 1463 1462 1461 1462 1460 1461 1459 1457 1455 1472 1412 1407 1404 1401 1402 1395 1382 1381 1393 1385 1384 1393 1387 1388 1399 1401 1397 1406 1406 1415 1420 1426 1434 1440 1441 1452 1421 1414 1414 1408 1404 1403 1403 1407
1456 1458 1457 1458 1457 1458 1458 1457 1455 1468 1466 1415 1405 1404 1401 1399 1398 1389 1386 1388 1383 1382 1382 1377 1380 1386 1388 1396 1402 1409 1416 1422 1429 1434 1450 1429 1439 1416 1406 1407 1403 1396 1394 1396 1400
1449 1452 1453 1453 1453 1454 1455 1456 1473 1465 1429 1414 1408 1407 1403 1395 1390 1396 1385 1382 1379 1373 1380 1375 1378 1377 1381 1392 1397 1402 1411 1437 1441 1442 1434 1415 1434 1401 1395 1394 1391 1387 1388 1391 1393
1442 1444 1445 1447 1449 1450 1455 1460 1485 1443 1431 1415 1413 1408 1408 1404 1398 1399 1386 1378 1372 1366 1369 1369 1372 1369 1369 1376 1391 1393 1396 1412 1422 1439 1411 1414 1414 1396 1384 1379 1380 1382 1383 1385 1386
1437 1439 1439 1441 1442 1444 1450 1468 1455 1439 1426 1423 1418 1411 1405 1405 1408 1405 1402 1396 1373 1368 1372 1368 1361 1354 1360 1365 1375 1386 1390 1386 1411 1417 1421 1411 1399 1386 1380 1379 1377 1376 1377 1377 1379
1432 1435 1434 1434 1437 1440 1445 1444 1435 1428 1425 1424 1426 1416 1423 1412 1408 1407 1401 1386 1383 1378 1369 1359 1359 1352 1355 1362 1363 1369 1376 1394 1401 1413 1415 1404 1399 1379 1377 1372 1369 1371 1370 1371 1374
1427 1431 1430 1431 1434 1439 1442 1438 1427 1423 1424 1425 1420 1419 1413 1415 1408 1402 1401 1390 1390 1386 1379 1376 1359 1349 1352 1346 1354 1365 1368 1374 1390 1406 1397 1400 1388 1366 1365 1364 1363 1360 1361 1366 1369
1420 1427 1425 1428 1432 1430 1431 1427 1421 1417 1419 1419 1415 1411 1409 1407 1409 1401 1395 1389 1392 1390 1386 1385 1366 1345 1339 1338 1347 1351 1357 1363 1379 1393 1390 1390 1378 1349 1349 1349 1353 1354 1357 1363 1367
1414 1419 1422 1424 1426 1433 1425 1421 1417 1414 1413 1411 1407 1404 1400 1400 1401 1396 1386 1389 1391 1392 1390 1385 1376 1358 1344 1352 1351 1351 1350 1354 1357 1364 1375 1383 1372 1353 1352 1353 1353 1354 1357 1361 1365
1411 1414 1417 1415 1418 1420 1422 1418 1413 1410 1410 1408 1405 1403 1401 1398 1395 1393 1391 1387 1387 1387 1386 1385 1382 1376 1365 1360 1354 1350 1352 1358 1360 1368 1362 1361 1353 1354 1354 1352 1351 1351 1353 1358 1362
1403 1405 1404 1412 1410 1413 1415 1414 1410 1410 1405 1404 1404 1401 1401 1397 1397 1395 1391 1388 1381 1377 1379 1380 1374 1370 1368 1365 1353 1336 1334 1341 1354 1362 1364 1345 1344 1346 1351 1352 1348 1347 1353 1357 1360
1394 1397 1402 1404 1405 1409 1409 1406 1405 1405 1405 1403 1402 1399 1399 1403 1400 1400 1395 1391 1388 1379 1378 1376 1373 1363 1350 1344 1341 1332 1327 1328 1333 1342 1353 1341 1336 1336 1343 1344 1345 1345 1349 1353 1357
1389 1391 1391 1395 1399 1403 1404 1400 1399 1400 1399 1398 1398 1399 1397 1395 1394 1393 1391 1385 1386 1383 1380 1381 1373 1371 1361 1346 1347 1332 1320 1320 1325 1323 1333 1335 1313 1333 1336 1338 1341 1342 1343 1345 1348